Tinker AFB, OK

3:23 AM CDT on July 23, 2017 (GMT -0500)
Tinker Air Force Base

Weather History for KTIK - May, 2013

Change the Weather History Date:

Saturday, May 25, 2013

  Actual Average Record
Temperature  
Mean Temperature 70 °F -  
Max Temperature 79 °F 79 °F 93 °F (2006)
Min Temperature 62 °F 59 °F 48 °F (2001)
Cooling Degree Days 6    
Growing Degree Days 20 (Base 50)    
Moisture  
Dew Point 66 °F    
Average Humidity 82    
Maximum Humidity 98    
Minimum Humidity 68    
Precipitation  
Precipitation 0.00 in - - ()
Sea Level Pressure  
Sea Level Pressure 30.11 in    
Wind  
Wind Speed 13 mph (SSE)    
Max Wind Speed 18 mph    
Max Gust Speed 24 mph    
Visibility 10 miles    
Events      
Averages and records for this station are not official NWS values.
T = Trace of Precipitation, MM = Missing Value Source: NWS Daily Summary

Daily Weather History Graph

Daily Weather History Graph

Search for Another Location

Airport or City:

Trip Planner

Search our weather history database for the weather conditions in past years. The results will help you decide how hot, cold, wet, or windy it might be!

Date:

Astronomy

May. 25, 2013 Rise Set
Actual Time 6:18 AM CDT 8:34 PM CDT
Civil Twilight 5:49 AM CDT 9:03 PM CDT
Nautical Twilight 5:14 AM CDT 9:39 PM CDT
Astronomical Twilight 4:35 AM CDT 10:18 PM CDT
Moon 9:24 PM CDT (5/25) 6:46 AM CDT (5/25)
Length of Visible Light 15h 14m
Length of Day
14h 16m
Full, 100% of the Moon is Illuminated
May 25
Full
May 31
Last Quarter
Jun 8
New
Jun 16
First Quarter
Jun 23
Full

Hourly Weather History & Observations

Time (CDT) Temp. Dew Point Humidity Pressure Visibility Wind Dir Wind Speed Gust Speed Precip Events Conditions
12:03 AM 71.6 °F 68.0 °F 88% 30.11 in 10.0 mi South 15.0 mph - N/A   Mostly Cloudy
12:58 AM 70.0 °F 62.6 °F 77% 30.14 in 10.0 mi South 15.0 mph - N/A   Clear
1:58 AM 68.7 °F 64.2 °F 86% 30.15 in 10.0 mi South 10.4 mph - N/A   Scattered Clouds
2:58 AM 67.3 °F 62.2 °F 84% 30.12 in 10.0 mi SSW 12.7 mph - N/A   Clear
3:58 AM 64.6 °F 61.7 °F 90% 30.11 in 10.0 mi South 8.1 mph - N/A   Clear
4:58 AM 64.0 °F 62.2 °F 94% 30.10 in 10.0 mi SSE 5.8 mph - N/A   Clear
5:58 AM 63.5 °F 61.7 °F 94% 30.12 in 10.0 mi SE 6.9 mph - N/A   Clear
6:58 AM 62.8 °F 62.2 °F 98% 30.14 in 10.0 mi ESE 5.8 mph - N/A   Clear
7:54 AM 64.4 °F 62.6 °F 94% 30.15 in 10.0 mi SE 12.7 mph - N/A   Partly Cloudy
7:58 AM 65.1 °F 63.5 °F 94% 30.14 in 10.0 mi SE 11.5 mph - N/A   Partly Cloudy
8:58 AM 68.5 °F 64.4 °F 87% 30.14 in 10.0 mi SE 11.5 mph - N/A   Clear
9:58 AM 70.5 °F 65.1 °F 83% 30.15 in 10.0 mi South 16.1 mph - N/A   Partly Cloudy
10:18 AM 71.6 °F 66.2 °F 83% 30.16 in 10.0 mi SSE 12.7 mph 23.0 mph N/A   Mostly Cloudy
10:33 AM 71.6 °F 66.2 °F 83% 30.15 in 10.0 mi SSE 15.0 mph 23.0 mph N/A   Mostly Cloudy
10:53 AM 71.6 °F 66.2 °F 83% 30.16 in 10.0 mi SSE 13.8 mph - N/A   Scattered Clouds
10:58 AM 72.3 °F 66.7 °F 83% 30.15 in 10.0 mi South 15.0 mph - N/A   Scattered Clouds
11:58 AM 76.5 °F 68.0 °F 75% 30.13 in 10.0 mi SSE 12.7 mph 23.0 mph N/A   Partly Cloudy
12:43 PM 77.0 °F 68.0 °F 74% 30.14 in 10.0 mi South 18.4 mph 24.2 mph N/A   Mostly Cloudy
12:48 PM 77.0 °F 68.0 °F 74% 30.14 in 10.0 mi South 16.1 mph 24.2 mph N/A   Mostly Cloudy
12:58 PM 76.3 °F 68.4 °F 76% 30.13 in 10.0 mi South 18.4 mph - N/A   Mostly Cloudy
1:13 PM 77.0 °F 68.0 °F 74% 30.13 in 10.0 mi South 16.1 mph - N/A   Mostly Cloudy
1:23 PM 75.2 °F 68.0 °F 78% 30.13 in 10.0 mi South 16.1 mph - N/A   Mostly Cloudy
1:48 PM 75.2 °F 68.0 °F 78% 30.13 in 10.0 mi South 16.1 mph - N/A   Mostly Cloudy
1:58 PM 76.8 °F 68.5 °F 75% 30.11 in 10.0 mi South 17.3 mph - N/A   Scattered Clouds
2:58 PM 77.5 °F 68.5 °F 74% 30.10 in 10.0 mi South 16.1 mph 21.9 mph N/A   Scattered Clouds
3:58 PM 78.4 °F 67.8 °F 70% 30.09 in 10.0 mi South 13.8 mph - N/A   Clear
4:58 PM 79.0 °F 67.5 °F 68% 30.07 in 10.0 mi South 15.0 mph - N/A   Partly Cloudy
5:58 PM 76.3 °F 67.6 °F 74% 30.05 in 10.0 mi SSE 10.4 mph - N/A   Clear
6:58 PM 76.6 °F 68.2 °F 75% 30.04 in 10.0 mi SSE 11.5 mph 18.4 mph N/A   Clear
7:58 PM 72.5 °F 63.0 °F 72% 30.03 in 10.0 mi South 13.8 mph 23.0 mph N/A   Clear
8:58 PM 70.7 °F 63.5 °F 78% 30.01 in 10.0 mi SSE 10.4 mph - N/A   Clear
9:58 PM 69.1 °F 64.2 °F 84% 30.03 in 10.0 mi SSE 10.4 mph - N/A   Clear
10:58 PM 68.2 °F 64.4 °F 88% 30.04 in 10.0 mi SSE 11.5 mph 18.4 mph N/A   Clear
11:58 PM 68.5 °F 63.7 °F 84% 30.05 in 10.0 mi South 13.8 mph - N/A   Clear